Time,TemperatureF,DewpointF,PressureIn,WindDirection,WindDirectionDegrees,WindSpeedMPH,WindSpeedGustMPH,Humidity,HourlyPrecipIn,Conditions,Clouds,dailyrainin,SoftwareType,DateUTC
2013-02-15 00:00:00,38.0,36.4,28.95,NNW,347,4.0,4.0,94,0.00,,,0.00,Wunderground v.1.15,2013-02-15 05:00:00,
2013-02-15 00:05:00,38.0,36.4,28.95,West,281,4.0,4.0,94,0.00,,,0.00,Wunderground v.1.15,2013-02-15 05:05:00,
2013-02-15 00:10:00,38.0,36.2,28.95,West,275,4.0,11.0,93,0.00,,,0.00,Wunderground v.1.15,2013-02-15 05:10:00,
2013-02-15 00:15:00,38.0,35.9,28.95,West,280,5.0,11.0,92,0.00,,,0.00,Wunderground v.1.15,2013-02-15 05:15:00,
2013-02-15 00:20:00,38.1,36.0,28.95,NNW,336,5.0,5.0,92,0.00,,,0.00,Wunderground v.1.15,2013-02-15 05:20:00,
2013-02-15 00:25:00,38.0,35.6,28.94,NW,311,4.0,5.0,91,0.00,,,0.00,Wunderground v.1.15,2013-02-15 05:25:00,
2013-02-15 00:30:00,38.0,35.3,28.95,West,277,4.0,5.0,90,0.00,,,0.00,Wunderground v.1.15,2013-02-15 05:30:00,
2013-02-15 00:35:00,38.0,35.0,28.95,WNW,284,5.0,5.0,89,0.00,,,0.00,Wunderground v.1.15,2013-02-15 05:35:00,
2013-02-15 00:40:00,37.9,34.9,28.94,WNW,291,5.0,5.0,89,0.00,,,0.00,Wunderground v.1.15,2013-02-15 05:40:00,
2013-02-15 00:45:00,37.8,34.6,28.95,North,10,6.0,6.0,88,0.00,,,0.00,Wunderground v.1.15,2013-02-15 05:45:00,
2013-02-15 00:55:00,37.6,34.1,28.95,NNW,329,5.0,6.0,87,0.00,,,0.00,Wunderground v.1.15,2013-02-15 05:55:00,
2013-02-15 01:00:00,37.5,34.0,28.95,North,355,6.0,6.0,87,0.00,,,0.00,Wunderground v.1.15,2013-02-15 06:00:00,
2013-02-15 01:05:00,37.6,33.8,28.95,WNW,301,5.0,13.0,86,0.00,,,0.00,Wunderground v.1.15,2013-02-15 06:05:00,
2013-02-15 01:10:00,37.5,33.7,28.95,NW,322,5.0,13.0,86,0.00,,,0.00,Wunderground v.1.15,2013-02-15 06:10:00,
2013-02-15 01:15:00,37.5,33.7,28.95,WNW,297,4.0,13.0,86,0.00,,,0.00,Wunderground v.1.15,2013-02-15 06:15:00,
2013-02-15 01:25:00,37.4,33.6,28.95,WNW,283,4.0,13.0,86,0.00,,,0.00,Wunderground v.1.15,2013-02-15 06:25:00,
2013-02-15 01:30:00,37.3,33.5,28.95,WNW,298,5.0,13.0,86,0.00,,,0.00,Wunderground v.1.15,2013-02-15 06:30:00,
2013-02-15 01:35:00,37.3,33.2,28.95,NW,304,5.0,13.0,85,0.00,,,0.00,Wunderground v.1.15,2013-02-15 06:35:00,
2013-02-15 01:40:00,37.2,33.1,28.95,NNW,329,6.0,6.0,85,0.00,,,0.00,Wunderground v.1.15,2013-02-15 06:40:00,
2013-02-15 01:45:00,37.1,33.0,28.95,WNW,288,6.0,7.0,85,0.00,,,0.00,Wunderground v.1.15,2013-02-15 06:45:00,
2013-02-15 01:50:00,37.1,33.0,28.95,NW,316,6.0,13.0,85,0.00,,,0.00,Wunderground v.1.15,2013-02-15 06:50:00,
2013-02-15 02:00:00,37.0,32.9,28.95,NW,317,5.0,5.0,85,0.00,,,0.00,Wunderground v.1.15,2013-02-15 07:00:00,
2013-02-15 02:05:00,37.0,32.9,28.96,WNW,302,4.0,13.0,85,0.00,,,0.00,Wunderground v.1.15,2013-02-15 07:05:00,
2013-02-15 02:10:00,37.0,32.9,28.96,WNW,301,5.0,5.0,85,0.00,,,0.00,Wunderground v.1.15,2013-02-15 07:10:00,
2013-02-15 02:15:00,37.0,32.9,28.96,WNW,284,6.0,6.0,85,0.00,,,0.00,Wunderground v.1.15,2013-02-15 07:15:00,
2013-02-15 02:20:00,37.1,33.0,28.96,WNW,294,6.0,13.0,85,0.00,,,0.00,Wunderground v.1.15,2013-02-15 07:20:00,
2013-02-15 02:30:00,37.1,32.7,28.95,WNW,296,6.0,13.0,84,0.00,,,0.00,Wunderground v.1.15,2013-02-15 07:30:00,
2013-02-15 02:35:00,37.1,32.7,28.96,NW,304,6.0,13.0,84,0.00,,,0.00,Wunderground v.1.15,2013-02-15 07:35:00,
2013-02-15 02:40:00,37.1,32.7,28.96,West,277,7.0,7.0,84,0.00,,,0.00,Wunderground v.1.15,2013-02-15 07:40:00,
2013-02-15 02:45:00,37.1,32.7,28.96,West,278,6.0,13.0,84,0.00,,,0.00,Wunderground v.1.15,2013-02-15 07:45:00,
2013-02-15 02:50:00,37.1,32.4,28.96,NNW,341,6.0,6.0,83,0.00,,,0.00,Wunderground v.1.15,2013-02-15 07:50:00,
2013-02-15 02:55:00,37.0,32.3,28.96,WNW,289,6.0,13.0,83,0.00,,,0.00,Wunderground v.1.15,2013-02-15 07:55:00,
2013-02-15 03:05:00,36.9,32.2,28.96,NW,315,6.0,13.0,83,0.00,,,0.00,Wunderground v.1.15,2013-02-15 08:05:00,
2013-02-15 03:10:00,36.8,32.1,28.96,WNW,301,6.0,6.0,83,0.00,,,0.00,Wunderground v.1.15,2013-02-15 08:10:00,
2013-02-15 03:15:00,36.8,32.1,28.96,WNW,294,5.0,7.0,83,0.00,,,0.00,Wunderground v.1.15,2013-02-15 08:15:00,
2013-02-15 03:20:00,36.7,32.0,28.95,WNW,284,6.0,13.0,83,0.00,,,0.00,Wunderground v.1.15,2013-02-15 08:20:00,
2013-02-15 03:25:00,36.6,31.9,28.96,WNW,298,7.0,13.0,83,0.00,,,0.00,Wunderground v.1.15,2013-02-15 08:25:00,
2013-02-15 03:35:00,36.6,31.9,28.95,WNW,298,6.0,13.0,83,0.00,,,0.00,Wunderground v.1.15,2013-02-15 08:35:00,
2013-02-15 03:40:00,36.5,31.8,28.96,NW,326,6.0,6.0,83,0.00,,,0.00,Wunderground v.1.15,2013-02-15 08:40:00,
2013-02-15 03:45:00,36.4,31.7,28.96,WNW,300,6.0,13.0,83,0.00,,,0.00,Wunderground v.1.15,2013-02-15 08:45:00,
2013-02-15 03:50:00,36.4,31.7,28.96,WNW,303,5.0,13.0,83,0.00,,,0.00,Wunderground v.1.15,2013-02-15 08:50:00,
2013-02-15 03:55:00,36.3,31.9,28.96,WNW,284,5.0,13.0,84,0.00,,,0.00,Wunderground v.1.15,2013-02-15 08:55:00,
2013-02-15 04:00:00,36.3,31.6,28.96,NNW,336,6.0,6.0,83,0.00,,,0.00,Wunderground v.1.15,2013-02-15 09:00:00,
2013-02-15 04:09:00,36.3,31.6,28.96,NW,315,5.0,5.0,83,0.00,,,0.00,Wunderground v.1.15,2013-02-15 09:09:00,
2013-02-15 04:14:00,36.2,31.5,28.96,West,279,5.0,13.0,83,0.00,,,0.00,Wunderground v.1.15,2013-02-15 09:14:00,
2013-02-15 04:19:00,36.2,31.5,28.96,WNW,289,5.0,5.0,83,0.00,,,0.00,Wunderground v.1.15,2013-02-15 09:19:00,
2013-02-15 04:24:00,36.1,31.4,28.96,WNW,282,6.0,6.0,83,0.00,,,0.00,Wunderground v.1.15,2013-02-15 09:24:00,
2013-02-15 04:29:00,36.1,31.4,28.96,WNW,286,6.0,6.0,83,0.00,,,0.00,Wunderground v.1.15,2013-02-15 09:29:00,
2013-02-15 04:39:00,36.1,31.4,28.97,NW,311,6.0,13.0,83,0.00,,,0.00,Wunderground v.1.15,2013-02-15 09:39:00,
2013-02-15 04:44:00,36.1,31.4,28.97,WNW,299,7.0,13.0,83,0.00,,,0.00,Wunderground v.1.15,2013-02-15 09:44:00,
2013-02-15 04:49:00,36.1,31.4,28.97,West,261,7.0,7.0,83,0.00,,,0.00,Wunderground v.1.15,2013-02-15 09:49:00,
2013-02-15 04:54:00,36.1,31.4,28.97,NW,323,7.0,13.0,83,0.00,,,0.00,Wunderground v.1.15,2013-02-15 09:54:00,
2013-02-15 04:59:00,36.1,31.4,28.98,NW,316,7.0,7.0,83,0.00,,,0.00,Wunderground v.1.15,2013-02-15 09:59:00,
2013-02-15 05:04:00,36.1,31.4,28.98,WNW,286,7.0,13.0,83,0.00,,,0.00,Wunderground v.1.15,2013-02-15 10:04:00,
2013-02-15 05:14:00,36.0,31.6,28.98,WNW,288,7.0,13.0,84,0.00,,,0.00,Wunderground v.1.15,2013-02-15 10:14:00,
2013-02-15 05:19:00,35.9,31.5,28.98,WNW,300,6.0,13.0,84,0.00,,,0.00,Wunderground v.1.15,2013-02-15 10:19:00,
2013-02-15 05:24:00,35.9,31.5,28.98,NW,320,7.0,13.0,84,0.00,,,0.00,Wunderground v.1.15,2013-02-15 10:24:00,
2013-02-15 05:29:00,35.9,31.5,28.98,West,269,7.0,13.0,84,0.00,,,0.00,Wunderground v.1.15,2013-02-15 10:29:00,
2013-02-15 05:34:00,35.8,31.4,28.98,NW,306,6.0,13.0,84,0.00,,,0.00,Wunderground v.1.15,2013-02-15 10:34:00,
2013-02-15 05:40:00,35.8,31.7,28.99,WNW,289,7.0,13.0,85,0.00,,,0.00,Wunderground v.1.15,2013-02-15 10:40:00,
2013-02-15 05:45:00,35.8,31.7,28.99,NW,306,7.0,13.0,85,0.00,,,0.00,Wunderground v.1.15,2013-02-15 10:45:00,
2013-02-15 05:50:00,35.7,31.6,28.99,WNW,296,7.0,7.0,85,0.00,,,0.00,Wunderground v.1.15,2013-02-15 10:50:00,
2013-02-15 05:55:00,35.7,31.6,29.00,NNW,333,7.0,13.0,85,0.00,,,0.00,Wunderground v.1.15,2013-02-15 10:55:00,
2013-02-15 06:00:00,35.7,31.6,29.00,NW,325,6.0,13.0,85,0.00,,,0.00,Wunderground v.1.15,2013-02-15 11:00:00,
2013-02-15 06:05:00,35.7,31.6,29.00,West,265,5.0,13.0,85,0.00,,,0.00,Wunderground v.1.15,2013-02-15 11:05:00,
2013-02-15 06:15:00,35.7,31.6,29.00,NNW,340,6.0,13.0,85,0.00,,,0.00,Wunderground v.1.15,2013-02-15 11:15:00,
2013-02-15 06:20:00,35.7,31.6,29.01,North,355,6.0,13.0,85,0.00,,,0.00,Wunderground v.1.15,2013-02-15 11:20:00,
2013-02-15 06:25:00,35.7,31.6,29.01,West,279,5.0,13.0,85,0.00,,,0.00,Wunderground v.1.15,2013-02-15 11:25:00,
2013-02-15 06:30:00,35.6,31.5,29.01,WNW,292,5.0,13.0,85,0.00,,,0.00,Wunderground v.1.15,2013-02-15 11:30:00,
2013-02-15 06:35:00,35.6,31.5,29.01,WNW,294,6.0,13.0,85,0.00,,,0.00,Wunderground v.1.15,2013-02-15 11:35:00,
2013-02-15 06:40:00,35.6,31.5,29.01,WNW,297,6.0,13.0,85,0.00,,,0.00,Wunderground v.1.15,2013-02-15 11:40:00,
2013-02-15 06:50:00,35.4,31.6,29.02,North,349,6.0,6.0,86,0.00,,,0.00,Wunderground v.1.15,2013-02-15 11:50:00,
2013-02-15 06:55:00,35.3,31.5,29.02,WNW,294,7.0,7.0,86,0.00,,,0.00,Wunderground v.1.15,2013-02-15 11:55:00,
2013-02-15 07:00:00,35.2,31.4,29.02,WNW,286,7.0,7.0,86,0.00,,,0.00,Wunderground v.1.15,2013-02-15 12:00:00,
2013-02-15 07:05:00,35.2,31.4,29.03,WNW,296,6.0,13.0,86,0.00,,,0.00,Wunderground v.1.15,2013-02-15 12:05:00,
2013-02-15 07:10:00,35.2,31.4,29.03,NNW,348,5.0,13.0,86,0.00,,,0.00,Wunderground v.1.15,2013-02-15 12:10:00,
2013-02-15 07:20:00,35.1,31.0,29.04,WNW,285,6.0,6.0,85,0.00,,,0.00,Wunderground v.1.15,2013-02-15 12:20:00,
2013-02-15 07:25:00,35.1,31.0,29.03,WNW,290,6.0,9.0,85,0.00,,,0.00,Wunderground v.1.15,2013-02-15 12:25:00,
2013-02-15 07:30:00,35.0,30.9,29.04,NNW,348,6.0,13.0,85,0.00,,,0.00,Wunderground v.1.15,2013-02-15 12:30:00,
2013-02-15 07:35:00,35.0,30.9,29.04,West,279,6.0,13.0,85,0.00,,,0.00,Wunderground v.1.15,2013-02-15 12:35:00,
2013-02-15 07:40:00,35.0,30.9,29.04,NNW,338,6.0,13.0,85,0.00,,,0.00,Wunderground v.1.15,2013-02-15 12:40:00,
2013-02-15 07:45:00,35.0,30.9,29.05,NNW,331,6.0,13.0,85,0.00,,,0.00,Wunderground v.1.15,2013-02-15 12:45:00,
2013-02-15 07:54:00,34.8,30.5,29.05,NNW,339,5.0,13.0,84,0.00,,,0.00,Wunderground v.1.15,2013-02-15 12:54:00,
2013-02-15 08:00:00,34.7,30.1,29.05,NW,312,6.0,6.0,83,0.00,,,0.00,Wunderground v.1.15,2013-02-15 13:00:00,
2013-02-15 08:05:00,34.7,29.8,29.06,NNW,340,6.0,13.0,82,0.00,,,0.00,Wunderground v.1.15,2013-02-15 13:05:00,
2013-02-15 08:10:00,34.8,29.6,29.06,NNE,22,6.0,13.0,81,0.00,,,0.00,Wunderground v.1.15,2013-02-15 13:10:00,
2013-02-15 08:15:00,34.9,29.7,29.06,WNW,296,7.0,13.0,81,0.00,,,0.00,Wunderground v.1.15,2013-02-15 13:15:00,
2013-02-15 08:24:00,34.9,29.4,29.07,NW,308,5.0,9.0,80,0.00,,,0.00,Wunderground v.1.15,2013-02-15 13:24:00,
2013-02-15 08:29:00,35.0,29.5,29.07,NW,324,5.0,5.0,80,0.00,,,0.00,Wunderground v.1.15,2013-02-15 13:29:00,
2013-02-15 08:34:00,34.9,29.4,29.07,North,360,5.0,13.0,80,0.00,,,0.00,Wunderground v.1.15,2013-02-15 13:34:00,
2013-02-15 08:39:00,35.0,29.5,29.07,WNW,296,6.0,6.0,80,0.00,,,0.00,Wunderground v.1.15,2013-02-15 13:39:00,
2013-02-15 08:44:00,35.1,29.6,29.07,North,355,5.0,13.0,80,0.00,,,0.00,Wunderground v.1.15,2013-02-15 13:44:00,
2013-02-15 08:49:00,35.1,29.6,29.08,NNW,327,5.0,5.0,80,0.00,,,0.00,Wunderground v.1.15,2013-02-15 13:49:00,
2013-02-15 08:59:00,35.0,29.5,29.08,WNW,300,5.0,13.0,80,0.00,,,0.00,Wunderground v.1.15,2013-02-15 13:59:00,
2013-02-15 09:04:00,34.9,29.4,29.09,NNW,344,6.0,13.0,80,0.00,,,0.00,Wunderground v.1.15,2013-02-15 14:04:00,
2013-02-15 09:09:00,34.6,28.8,29.09,West,274,7.0,7.0,79,0.00,,,0.00,Wunderground v.1.15,2013-02-15 14:09:00,
2013-02-15 09:14:00,34.6,29.1,29.09,West,273,7.0,13.0,80,0.00,,,0.00,Wunderground v.1.15,2013-02-15 14:14:00,
2013-02-15 09:19:00,34.6,29.4,29.09,NW,324,5.0,13.0,81,0.00,,,0.00,Wunderground v.1.15,2013-02-15 14:19:00,
2013-02-15 09:29:00,35.4,29.2,29.10,NNE,15,6.0,13.0,78,0.00,,,0.00,Wunderground v.1.15,2013-02-15 14:29:00,
2013-02-15 09:34:00,36.5,29.7,29.10,NW,310,7.0,13.0,76,0.00,,,0.00,Wunderground v.1.15,2013-02-15 14:34:00,
2013-02-15 09:39:00,37.3,29.8,29.10,NNW,345,8.0,13.0,74,0.00,,,0.00,Wunderground v.1.15,2013-02-15 14:39:00,
2013-02-15 09:44:00,37.8,29.9,29.10,WNW,296,9.0,13.0,73,0.00,,,0.00,Wunderground v.1.15,2013-02-15 14:44:00,
2013-02-15 09:49:00,38.4,30.2,29.10,NNW,348,8.0,8.0,72,0.00,,,0.00,Wunderground v.1.15,2013-02-15 14:49:00,
2013-02-15 09:54:00,38.2,29.3,29.10,WNW,301,7.0,13.0,70,0.00,,,0.00,Wunderground v.1.15,2013-02-15 14:54:00,
2013-02-15 10:00:00,37.2,29.0,29.11,NNW,332,7.0,13.0,72,0.00,,,0.00,Wunderground v.1.15,2013-02-15 15:00:00,
2013-02-15 10:05:00,36.7,28.9,29.11,WNW,294,7.0,13.0,73,0.00,,,0.00,Wunderground v.1.15,2013-02-15 15:05:00,
2013-02-15 10:10:00,37.0,29.1,29.11,NW,313,7.0,13.0,73,0.00,,,0.00,Wunderground v.1.15,2013-02-15 15:10:00,
2013-02-15 10:15:00,37.3,28.4,29.11,NNW,337,7.0,13.0,70,0.00,,,0.00,Wunderground v.1.15,2013-02-15 15:15:00,
2013-02-15 10:20:00,37.2,28.0,29.11,WNW,290,8.0,13.0,69,0.00,,,0.00,Wunderground v.1.15,2013-02-15 15:20:00,
2013-02-15 10:25:00,37.2,28.3,29.11,NNE,23,7.0,13.0,70,0.00,,,0.00,Wunderground v.1.15,2013-02-15 15:25:00,
2013-02-15 10:35:00,37.8,28.5,29.11,NW,307,6.0,11.0,69,0.00,,,0.00,Wunderground v.1.15,2013-02-15 15:35:00,
2013-02-15 10:40:00,38.1,28.8,29.12,North,350,6.0,6.0,69,0.00,,,0.00,Wunderground v.1.15,2013-02-15 15:40:00,
2013-02-15 10:45:00,38.7,30.1,29.12,NW,319,6.0,7.0,71,0.00,,,0.00,Wunderground v.1.15,2013-02-15 15:45:00,
2013-02-15 10:50:00,38.7,29.4,29.12,NW,311,7.0,13.0,69,0.00,,,0.00,Wunderground v.1.15,2013-02-15 15:50:00,
2013-02-15 10:55:00,37.9,29.3,29.12,NNW,340,8.0,13.0,71,0.00,,,0.00,Wunderground v.1.15,2013-02-15 15:55:00,
2013-02-15 11:05:00,37.1,28.9,29.12,North,355,6.0,13.0,72,0.00,,,0.00,Wunderground v.1.15,2013-02-15 16:05:00,
2013-02-15 11:10:00,36.5,28.3,29.13,WNW,287,5.0,13.0,72,0.00,,,0.00,Wunderground v.1.15,2013-02-15 16:10:00,
2013-02-15 11:15:00,36.0,28.5,29.13,WNW,300,5.0,13.0,74,0.00,,,0.00,Wunderground v.1.15,2013-02-15 16:15:00,
2013-02-15 11:20:00,36.1,29.3,29.13,WNW,302,5.0,5.0,76,0.00,,,0.00,Wunderground v.1.15,2013-02-15 16:20:00,
2013-02-15 11:25:00,37.0,29.8,29.13,NNW,344,5.0,13.0,75,0.00,,,0.00,Wunderground v.1.15,2013-02-15 16:25:00,
2013-02-15 11:30:00,37.2,29.7,29.13,North,360,5.0,13.0,74,0.00,,,0.00,Wunderground v.1.15,2013-02-15 16:30:00,
2013-02-15 11:40:00,36.4,28.2,29.14,NW,313,7.0,7.0,72,0.00,,,0.00,Wunderground v.1.15,2013-02-15 16:40:00,
2013-02-15 11:45:00,36.9,28.4,29.14,West,275,4.0,13.0,71,0.00,,,0.00,Wunderground v.1.15,2013-02-15 16:45:00,
2013-02-15 11:50:00,37.3,28.1,29.14,NNW,346,4.0,4.0,69,0.00,,,0.00,Wunderground v.1.15,2013-02-15 16:50:00,
2013-02-15 11:55:00,37.1,27.5,29.13,West,276,5.0,6.0,68,0.00,,,0.00,Wunderground v.1.15,2013-02-15 16:55:00,
2013-02-15 12:00:00,36.9,27.0,29.13,NW,306,5.0,13.0,67,0.00,,,0.00,Wunderground v.1.15,2013-02-15 17:00:00,
2013-02-15 12:09:00,36.5,27.6,29.13,NW,317,7.0,13.0,70,0.00,,,0.00,Wunderground v.1.15,2013-02-15 17:09:00,
2013-02-15 12:14:00,36.3,27.4,29.13,NNW,346,8.0,13.0,70,0.00,,,0.00,Wunderground v.1.15,2013-02-15 17:14:00,
2013-02-15 12:19:00,36.2,27.7,29.13,North,5,8.0,13.0,71,0.00,,,0.00,Wunderground v.1.15,2013-02-15 17:19:00,
2013-02-15 12:24:00,36.3,27.8,29.13,NW,317,8.0,13.0,71,0.00,,,0.00,Wunderground v.1.15,2013-02-15 17:24:00,
2013-02-15 12:30:00,36.5,28.3,29.13,NNW,344,9.0,13.0,72,0.00,,,0.00,Wunderground v.1.15,2013-02-15 17:30:00,
2013-02-15 12:35:00,36.6,28.1,29.13,NNE,19,9.0,13.0,71,0.00,,,0.00,Wunderground v.1.15,2013-02-15 17:35:00,
2013-02-15 12:44:00,36.2,27.7,29.12,NNW,329,8.0,13.0,71,0.00,,,0.00,Wunderground v.1.15,2013-02-15 17:44:00,
2013-02-15 12:49:00,36.1,27.6,29.12,NW,321,8.0,8.0,71,0.00,,,0.00,Wunderground v.1.15,2013-02-15 17:49:00,
2013-02-15 12:54:00,36.1,27.6,29.12,North,355,8.0,13.0,71,0.00,,,0.00,Wunderground v.1.15,2013-02-15 17:54:00,
2013-02-15 12:59:00,36.0,27.5,29.12,NNW,339,9.0,13.0,71,0.00,,,0.00,Wunderground v.1.15,2013-02-15 17:59:00,
2013-02-15 13:04:00,36.2,27.4,29.12,WNW,296,10.0,13.0,70,0.00,,,0.00,Wunderground v.1.15,2013-02-15 18:04:00,
2013-02-15 13:14:00,36.2,26.6,29.13,NNW,337,7.0,13.0,68,0.00,,,0.00,Wunderground v.1.15,2013-02-15 18:14:00,
2013-02-15 13:19:00,36.2,25.9,29.13,NNW,327,6.0,6.0,66,0.00,,,0.00,Wunderground v.1.15,2013-02-15 18:19:00,
2013-02-15 13:24:00,36.3,25.7,29.13,NNW,331,5.0,13.0,65,0.00,,,0.00,Wunderground v.1.15,2013-02-15 18:24:00,
2013-02-15 13:29:00,36.1,25.1,29.13,North,355,7.0,7.0,64,0.00,,,0.00,Wunderground v.1.15,2013-02-15 18:29:00,
2013-02-15 13:34:00,36.2,26.3,29.13,North,351,7.0,9.0,67,0.00,,,0.00,Wunderground v.1.15,2013-02-15 18:34:00,
2013-02-15 13:39:00,36.2,25.9,29.13,North,5,9.0,13.0,66,0.00,,,0.00,Wunderground v.1.15,2013-02-15 18:39:00,
2013-02-15 13:49:00,35.7,25.4,29.13,North,355,10.0,13.0,66,0.00,,,0.00,Wunderground v.1.15,2013-02-15 18:49:00,
2013-02-15 13:54:00,35.8,26.6,29.13,NNE,17,9.0,13.0,69,0.00,,,0.00,Wunderground v.1.15,2013-02-15 18:54:00,
2013-02-15 13:59:00,35.9,26.4,29.13,NNW,327,8.0,13.0,68,0.00,,,0.00,Wunderground v.1.15,2013-02-15 18:59:00,
2013-02-15 14:04:00,35.7,25.8,29.13,NW,304,9.0,13.0,67,0.00,,,0.00,Wunderground v.1.15,2013-02-15 19:04:00,
2013-02-15 14:09:00,35.6,26.1,29.13,NW,325,8.0,8.0,68,0.00,,,0.00,Wunderground v.1.15,2013-02-15 19:09:00,
2013-02-15 14:15:00,35.5,25.6,29.13,WNW,302,7.0,13.0,67,0.00,,,0.00,Wunderground v.1.15,2013-02-15 19:15:00,
2013-02-15 14:20:00,35.2,25.3,29.13,NNW,346,6.0,13.0,67,0.00,,,0.00,Wunderground v.1.15,2013-02-15 19:20:00,
2013-02-15 14:25:00,35.2,25.3,29.13,North,350,7.0,13.0,67,0.00,,,0.00,Wunderground v.1.15,2013-02-15 19:25:00,
2013-02-15 14:30:00,35.3,26.1,29.13,NW,311,8.0,8.0,69,0.00,,,0.00,Wunderground v.1.15,2013-02-15 19:30:00,
2013-02-15 14:35:00,35.3,25.8,29.13,North,355,7.0,13.0,68,0.00,,,0.00,Wunderground v.1.15,2013-02-15 19:35:00,
2013-02-15 14:40:00,35.4,25.9,29.13,NW,312,5.0,14.0,68,0.00,,,0.00,Wunderground v.1.15,2013-02-15 19:40:00,
2013-02-15 14:50:00,35.1,25.2,29.14,North,360,9.0,9.0,67,0.00,,,0.00,Wunderground v.1.15,2013-02-15 19:50:00,
2013-02-15 14:55:00,34.9,25.4,29.14,NW,311,9.0,13.0,68,0.00,,,0.00,Wunderground v.1.15,2013-02-15 19:55:00,
2013-02-15 15:00:00,34.8,25.7,29.14,North,11,9.0,9.0,69,0.00,,,0.00,Wunderground v.1.15,2013-02-15 20:00:00,
2013-02-15 15:05:00,34.7,25.6,29.14,NNW,346,8.0,13.0,69,0.00,,,0.00,Wunderground v.1.15,2013-02-15 20:05:00,
2013-02-15 15:10:00,34.6,25.5,29.14,North,350,8.0,8.0,69,0.00,,,0.00,Wunderground v.1.15,2013-02-15 20:10:00,
2013-02-15 15:15:00,34.5,25.0,29.14,North,355,9.0,9.0,68,0.00,,,0.00,Wunderground v.1.15,2013-02-15 20:15:00,
2013-02-15 15:25:00,34.4,25.3,29.14,WNW,296,8.0,13.0,69,0.00,,,0.00,Wunderground v.1.15,2013-02-15 20:25:00,
2013-02-15 15:30:00,34.3,24.8,29.15,North,355,8.0,13.0,68,0.00,,,0.00,Wunderground v.1.15,2013-02-15 20:30:00,
2013-02-15 15:35:00,34.1,25.0,29.15,NW,315,8.0,13.0,69,0.00,,,0.00,Wunderground v.1.15,2013-02-15 20:35:00,
2013-02-15 15:40:00,34.1,25.0,29.15,NNW,342,7.0,7.0,69,0.00,,,0.00,Wunderground v.1.15,2013-02-15 20:40:00,
2013-02-15 15:45:00,34.2,25.4,29.15,NNE,12,6.0,8.0,70,0.00,,,0.00,Wunderground v.1.15,2013-02-15 20:45:00,
2013-02-15 15:54:00,34.0,24.5,29.16,North,10,8.0,13.0,68,0.00,,,0.00,Wunderground v.1.15,2013-02-15 20:54:00,
2013-02-15 15:59:00,33.8,24.0,29.16,North,360,9.0,13.0,67,0.00,,,0.00,Wunderground v.1.15,2013-02-15 20:59:00,
2013-02-15 16:04:00,33.5,24.1,29.16,NNW,347,11.0,13.0,68,0.00,,,0.00,Wunderground v.1.15,2013-02-15 21:04:00,
2013-02-15 16:09:00,33.2,23.8,29.16,WSW,242,10.0,13.0,68,0.00,,,0.00,Wunderground v.1.15,2013-02-15 21:09:00,
2013-02-15 16:14:00,33.1,24.4,29.16,WNW,284,8.0,13.0,70,0.00,,,0.00,Wunderground v.1.15,2013-02-15 21:14:00,
2013-02-15 16:20:00,33.0,24.3,29.16,North,5,7.0,13.0,70,0.00,,,0.00,Wunderground v.1.15,2013-02-15 21:20:00,
2013-02-15 16:29:00,32.8,24.1,29.17,North,355,8.0,16.0,70,0.00,,,0.00,Wunderground v.1.15,2013-02-15 21:29:00,
2013-02-15 16:34:00,32.7,24.0,29.17,NNW,341,9.0,16.0,70,0.00,,,0.00,Wunderground v.1.15,2013-02-15 21:34:00,
2013-02-15 16:39:00,32.5,24.1,29.17,NNE,19,9.0,9.0,71,0.00,,,0.00,Wunderground v.1.15,2013-02-15 21:39:00,
2013-02-15 16:44:00,32.5,24.1,29.17,NNW,338,8.0,13.0,71,0.00,,,0.00,Wunderground v.1.15,2013-02-15 21:44:00,
2013-02-15 16:49:00,32.4,24.4,29.17,North,9,8.0,13.0,72,0.00,,,0.00,Wunderground v.1.15,2013-02-15 21:49:00,
2013-02-15 16:59:00,32.0,24.0,29.17,NNE,32,6.0,13.0,72,0.00,,,0.00,Wunderground v.1.15,2013-02-15 21:59:00,
2013-02-15 17:04:00,31.7,23.7,29.18,North,355,7.0,13.0,72,0.00,,,0.00,Wunderground v.1.15,2013-02-15 22:04:00,
2013-02-15 17:09:00,31.3,23.0,29.18,North,5,8.0,8.0,71,0.00,,,0.00,Wunderground v.1.15,2013-02-15 22:09:00,
2013-02-15 17:14:00,31.1,22.8,29.18,NNE,16,9.0,9.0,71,0.00,,,0.00,Wunderground v.1.15,2013-02-15 22:14:00,
2013-02-15 17:19:00,30.9,22.9,29.18,NNE,25,8.0,13.0,72,0.00,,,0.00,Wunderground v.1.15,2013-02-15 22:19:00,
2013-02-15 17:24:00,30.7,23.1,29.18,NNE,13,8.0,13.0,73,0.00,,,0.00,Wunderground v.1.15,2013-02-15 22:24:00,
2013-02-15 17:34:00,29.9,23.3,29.18,NNE,18,9.0,13.0,76,0.00,,,0.00,Wunderground v.1.15,2013-02-15 22:34:00,
2013-02-15 17:39:00,29.7,23.1,29.19,North,355,9.0,9.0,76,0.00,,,0.00,Wunderground v.1.15,2013-02-15 22:39:00,
2013-02-15 17:44:00,29.5,22.9,29.19,NNE,15,9.0,13.0,76,0.00,,,0.00,Wunderground v.1.15,2013-02-15 22:44:00,
2013-02-15 17:49:00,29.3,23.0,29.19,NNE,30,9.0,13.0,77,0.00,,,0.00,Wunderground v.1.15,2013-02-15 22:49:00,
2013-02-15 17:54:00,29.1,22.8,29.19,NNE,30,9.0,13.0,77,0.00,,,0.00,Wunderground v.1.15,2013-02-15 22:54:00,
2013-02-15 18:00:00,29.0,22.7,29.19,NNE,20,10.0,10.0,77,0.00,,,0.00,Wunderground v.1.15,2013-02-15 23:00:00,
2013-02-15 18:05:00,28.9,22.6,29.19,NE,38,9.0,13.0,77,0.00,,,0.00,Wunderground v.1.15,2013-02-15 23:05:00,
2013-02-15 18:14:00,28.8,22.5,29.20,NNE,17,7.0,13.0,77,0.00,,,0.00,Wunderground v.1.15,2013-02-15 23:14:00,
2013-02-15 18:19:00,28.7,22.4,29.20,NNE,26,6.0,13.0,77,0.00,,,0.00,Wunderground v.1.15,2013-02-15 23:19:00,
2013-02-15 18:24:00,28.7,22.4,29.21,NNE,21,7.0,13.0,77,0.00,,,0.00,Wunderground v.1.15,2013-02-15 23:24:00,
2013-02-15 18:29:00,28.6,22.3,29.21,NNE,31,7.0,13.0,77,0.00,,,0.00,Wunderground v.1.15,2013-02-15 23:29:00,
2013-02-15 18:35:00,28.4,22.1,29.21,North,10,7.0,13.0,77,0.00,,,0.00,Wunderground v.1.15,2013-02-15 23:35:00,
2013-02-15 18:40:00,28.3,22.0,29.21,NNE,26,6.0,13.0,77,0.00,,,0.00,Wunderground v.1.15,2013-02-15 23:40:00,
2013-02-15 18:45:00,28.1,21.5,29.21,NNE,18,7.0,13.0,76,0.00,,,0.00,Wunderground v.1.15,2013-02-15 23:45:00,
2013-02-15 18:50:00,28.0,21.4,29.22,North,350,7.0,13.0,76,0.00,,,0.00,Wunderground v.1.15,2013-02-15 23:50:00,
2013-02-15 18:55:00,28.0,21.4,29.22,North,355,7.0,13.0,76,0.00,,,0.00,Wunderground v.1.15,2013-02-15 23:55:00,
2013-02-15 19:00:00,27.9,21.3,29.23,North,350,7.0,7.0,76,0.00,,,0.00,Wunderground v.1.15,2013-02-16 00:00:00,
2013-02-15 19:10:00,27.6,20.7,29.23,NNE,18,7.0,13.0,75,0.00,,,0.00,Wunderground v.1.15,2013-02-16 00:10:00,
2013-02-15 19:15:00,27.5,20.6,29.23,NNE,19,7.0,13.0,75,0.00,,,0.00,Wunderground v.1.15,2013-02-16 00:15:00,
2013-02-15 19:20:00,27.5,20.9,29.23,NNW,338,7.0,7.0,76,0.00,,,0.00,Wunderground v.1.15,2013-02-16 00:20:00,
2013-02-15 19:25:00,27.6,21.0,29.23,NNW,348,6.0,13.0,76,0.00,,,0.00,Wunderground v.1.15,2013-02-16 00:25:00,
2013-02-15 19:30:00,27.5,20.9,29.24,North,355,6.0,6.0,76,0.00,,,0.00,Wunderground v.1.15,2013-02-16 00:30:00,
2013-02-15 19:39:00,27.4,20.2,29.24,NNE,12,8.0,13.0,74,0.00,,,0.00,Wunderground v.1.15,2013-02-16 00:39:00,
2013-02-15 19:44:00,27.3,20.1,29.24,NNE,24,8.0,13.0,74,0.00,,,0.00,Wunderground v.1.15,2013-02-16 00:44:00,
2013-02-15 19:50:00,27.1,19.6,29.24,North,350,9.0,9.0,73,0.00,,,0.00,Wunderground v.1.15,2013-02-16 00:50:00,
2013-02-15 19:55:00,27.0,19.8,29.24,NNW,344,8.0,13.0,74,0.00,,,0.00,Wunderground v.1.15,2013-02-16 00:55:00,
2013-02-15 20:00:00,27.0,19.8,29.24,North,11,8.0,13.0,74,0.00,,,0.00,Wunderground v.1.15,2013-02-16 01:00:00,
2013-02-15 20:05:00,26.9,19.7,29.24,North,355,8.0,13.0,74,0.00,,,0.00,Wunderground v.1.15,2013-02-16 01:05:00,
2013-02-15 20:14:00,26.7,19.5,29.24,NNE,13,8.0,13.0,74,0.00,,,0.00,Wunderground v.1.15,2013-02-16 01:14:00,
2013-02-15 20:19:00,26.7,19.5,29.24,North,360,7.0,7.0,74,0.00,,,0.00,Wunderground v.1.15,2013-02-16 01:19:00,
2013-02-15 20:24:00,26.6,19.1,29.24,North,355,7.0,13.0,73,0.00,,,0.00,Wunderground v.1.15,2013-02-16 01:24:00,
2013-02-15 20:29:00,26.5,19.0,29.25,North,350,7.0,13.0,73,0.00,,,0.00,Wunderground v.1.15,2013-02-16 01:29:00,
2013-02-15 20:34:00,26.4,19.2,29.25,NNW,348,7.0,13.0,74,0.00,,,0.00,Wunderground v.1.15,2013-02-16 01:34:00,
2013-02-15 20:44:00,26.1,18.9,29.25,NNW,336,7.0,13.0,74,0.00,,,0.00,Wunderground v.1.15,2013-02-16 01:44:00,
2013-02-15 20:49:00,26.0,19.2,29.25,NNW,332,6.0,13.0,75,0.00,,,0.00,Wunderground v.1.15,2013-02-16 01:49:00,
2013-02-15 20:54:00,25.8,19.3,29.25,North,5,6.0,13.0,76,0.00,,,0.00,Wunderground v.1.15,2013-02-16 01:54:00,
2013-02-15 20:59:00,25.6,19.1,29.25,North,350,6.0,6.0,76,0.00,,,0.00,Wunderground v.1.15,2013-02-16 01:59:00,
2013-02-15 21:04:00,25.4,18.9,29.25,NNW,342,5.0,13.0,76,0.00,,,0.00,Wunderground v.1.15,2013-02-16 02:04:00,
2013-02-15 21:09:00,25.3,18.8,29.25,NW,304,6.0,6.0,76,0.00,,,0.00,Wunderground v.1.15,2013-02-16 02:09:00,
2013-02-15 21:19:00,25.0,18.8,29.25,North,355,5.0,5.0,77,0.00,,,0.00,Wunderground v.1.15,2013-02-16 02:19:00,
2013-02-15 21:24:00,24.9,18.7,29.25,NNW,346,5.0,6.0,77,0.00,,,0.00,Wunderground v.1.15,2013-02-16 02:24:00,
2013-02-15 21:29:00,24.8,18.6,29.25,NNW,334,5.0,5.0,77,0.00,,,0.00,Wunderground v.1.15,2013-02-16 02:29:00,
2013-02-15 21:34:00,24.7,18.5,29.25,NNW,338,5.0,13.0,77,0.00,,,0.00,Wunderground v.1.15,2013-02-16 02:34:00,
2013-02-15 21:39:00,24.6,18.7,29.25,NNW,339,5.0,13.0,78,0.00,,,0.00,Wunderground v.1.15,2013-02-16 02:39:00,
2013-02-15 21:49:00,24.4,18.5,29.25,NNW,346,5.0,13.0,78,0.00,,,0.00,Wunderground v.1.15,2013-02-16 02:49:00,
2013-02-15 21:54:00,24.3,18.4,29.25,North,355,5.0,13.0,78,0.00,,,0.00,Wunderground v.1.15,2013-02-16 02:54:00,
2013-02-15 21:59:00,24.3,18.7,29.25,North,351,5.0,5.0,79,0.00,,,0.00,Wunderground v.1.15,2013-02-16 02:59:00,
2013-02-15 22:04:00,24.2,18.6,29.25,North,350,4.0,13.0,79,0.00,,,0.00,Wunderground v.1.15,2013-02-16 03:04:00,
2013-02-15 22:09:00,24.2,18.6,29.25,NNW,344,4.0,4.0,79,0.00,,,0.00,Wunderground v.1.15,2013-02-16 03:09:00,
2013-02-15 22:14:00,24.3,19.0,29.25,NNW,340,4.0,6.0,80,0.00,,,0.00,Wunderground v.1.15,2013-02-16 03:14:00,
2013-02-15 22:24:00,24.4,19.4,29.25,NNW,333,4.0,13.0,81,0.00,,,0.00,Wunderground v.1.15,2013-02-16 03:24:00,
2013-02-15 22:29:00,24.4,19.4,29.25,NNW,341,3.0,3.0,81,0.00,,,0.00,Wunderground v.1.15,2013-02-16 03:29:00,
2013-02-15 22:34:00,24.5,19.5,29.25,NNW,338,3.0,13.0,81,0.00,,,0.00,Wunderground v.1.15,2013-02-16 03:34:00,
2013-02-15 22:39:00,24.4,19.4,29.25,NNW,335,4.0,4.0,81,0.00,,,0.00,Wunderground v.1.15,2013-02-16 03:39:00,
2013-02-15 22:44:00,24.4,19.7,29.25,NNW,338,3.0,13.0,82,0.00,,,0.00,Wunderground v.1.15,2013-02-16 03:44:00,
2013-02-15 22:50:00,24.4,19.7,29.25,NNW,338,3.0,13.0,82,0.00,,,0.00,Wunderground v.1.15,2013-02-16 03:50:00,
2013-02-15 22:55:00,24.4,19.7,29.25,NNW,342,3.0,13.0,82,0.00,,,0.00,Wunderground v.1.15,2013-02-16 03:55:00,
2013-02-15 23:00:00,24.4,20.0,29.25,NNW,334,4.0,4.0,83,0.00,,,0.00,Wunderground v.1.15,2013-02-16 04:00:00,
2013-02-15 23:05:00,24.4,20.0,29.26,North,355,4.0,13.0,83,0.00,,,0.00,Wunderground v.1.15,2013-02-16 04:05:00,
2013-02-15 23:10:00,24.5,20.1,29.26,North,349,4.0,4.0,83,0.00,,,0.00,Wunderground v.1.15,2013-02-16 04:10:00,
2013-02-15 23:15:00,24.6,20.5,29.25,NNW,348,4.0,6.0,84,0.00,,,0.00,Wunderground v.1.15,2013-02-16 04:15:00,
2013-02-15 23:25:00,24.7,20.6,29.25,NNE,22,5.0,13.0,84,0.00,,,0.00,Wunderground v.1.15,2013-02-16 04:25:00,
2013-02-15 23:30:00,24.7,20.6,29.25,North,360,5.0,13.0,84,0.00,,,0.00,Wunderground v.1.15,2013-02-16 04:30:00,
2013-02-15 23:35:00,24.8,20.7,29.25,NNE,28,5.0,13.0,84,0.00,,,0.00,Wunderground v.1.15,2013-02-16 04:35:00,
2013-02-15 23:40:00,24.7,20.6,29.25,NNE,22,5.0,5.0,84,0.00,,,0.00,Wunderground v.1.15,2013-02-16 04:40:00,
2013-02-15 23:45:00,24.7,20.6,29.25,North,355,5.0,13.0,84,0.00,,,0.00,Wunderground v.1.15,2013-02-16 04:45:00,
2013-02-15 23:50:00,24.7,20.6,29.25,North,355,5.0,5.0,84,0.00,,,0.00,Wunderground v.1.15,2013-02-16 04:50:00,